COSMOS 2279

Satellite information

Favourite Embed

Satellite Type and Status

PAYLOADIN ORBIT

Key statistics

Satellite COSMOS 2279 at a glance.

Uptime

11555

Days in orbit

Revolutions

≈ 13.8

Per day

Orbit

LEO

Low Earth Orbit

Inclination

82.9

Latest

Satellite identification and parameters

Extended collection of information and parameters for COSMOS 2279.

Object identification

Identified? True

Debris? False

Object name: COSMOS 2279

International designator: 1994-024A

Object number (NORAD): 23092

Object ID (CCSDS): 23092

Country: COMMONWEALTH OF INDEPENDENT STATES (CIS)

Current information (Y/N): Y

RCS size: LARGE

Orbital parameters

Period: 104.604 minutes

Inclination: 82.9492 deg

SMA: 7354.012 km

Apoapsis: 1002.561 km

Periapsis: 949.194 km

RAAN: 353.4628 deg

Eccentricy: 0.00362842

Argument of periapsis: 55.6807 deg

Mean anomaly: 304.7775 deg

Mean motion: 13.76626831 rev/day

Mean motion (dot): 0.00000084 rev/day2

B* drag term: 0.000069727696 1/REarth

Two-line elements (TLE)

Creation date: Dec. 12, 2025, 10:14 a.m.

Reference frame: TEME

Reference center: EARTH

Epoch: Dec. 12, 2025, 7:04 a.m. UTC

TLE line 0: 0 COSMOS 2279

TLE line 1: 1 23092U 94024A 25346.29489102 .00000084 00000-0 69728-4 0 9998

TLE line 2: 2 23092 82.9492 353.4628 0036284 55.6807 304.7775 13.76626831588341

Live tracking on map

Real-time ground track for satellite COSMOS 2279.

In-orbit conjunctions

A list of the most updated potential collisions computed for object COSMOS 2279.

Target Orbit TCA Probability of collision Miss distance Type
SL-16 DEB LEO 2024-07-25 14:28:10 0.0003185417 236.0 (m) DEBRIS
SL-14 R/B LEO 2024-06-18 07:16:56 0.0004307019 882.0 (m) ROCKET BODY

Associated space launch

Navigation satellite providing location information for the Tsiklon-B navigation system

COSMOS 2279 was lifted into orbit during the mission ‘Kosmos-3M | Parus 82’, on board a Kosmos-3M space rocket.

The launch took place on April 26, 1994, 2:14 a.m. from 133/3 (133L).

For more information about the launch, click the button.

Launch to space Kosmos-3M | Parus 82
Kosmos-3M | Parus 82

Agency: N/A

Status: Launch Successful

Launch date: April 26, 1994, 2:14 a.m. UTC

Rocket: Kosmos-3M

Launch pad: 133/3 (133L)

Location: Plesetsk Cosmodrome, Russian Federation

...

Latest news about this satellite

There are no fresh news available about this satellite. Check back as we update our databases every day.


Newsletter sign-up

Weekly statistics, charts and insights to help you stay on top of the space industry.